Location: Roanoke
(37.2710°N, 79.9420°W)
Time: 12:08:35
(UTC-05:00)

S-56A Canister/Altair - Pass Details

Date: 26 November 2019
Orbit: 633 x 2499 km, 38.9° (Epoch: 10 December)

Event Time Altitude Azimuth Distance (km) Brightness Sun altitude
Rises 20:42:22 0° 287° (WNW) 4,509 12.2 -43.1°
Reaches altitude 10° 20:46:07 10° 280° (W) 3,208 11.3 -43.8°
Enters shadow 20:49:55 25° 260° (W) 2,000 10.0 -44.6°
Maximum altitude 20:52:45 35° 218° (SW) 1,482 - -45.1°
Drops below altitude 10° 20:57:34 10° 153° (SSE) 2,304 - -46.1°
Sets 20:59:51 0° 143° (SE) 3,094 - -46.5°
